Almo, KY

8:57 AM CDT on September 27, 2016 (GMT -0500)
Kyle-Oakley

Weather History for KCEY - September, 2013

Change the Weather History Date:

Sunday, September 1, 2013

  Actual Average (KPAH) Record (KPAH)
Temperature  
Mean Temperature 73 °F 75 °F  
Max Temperature 80 °F 87 °F 102 °F (1953)
Min Temperature 66 °F 63 °F 45 °F (1987)
Degree Days  
Heating Degree Days 0 0  
Month to date heating degree days 0  
Since 1 July heating degree days 1  
Cooling Degree Days 8 10  
Month to date cooling degree days 10  
Year to date cooling degree days 1323  
Growing Degree Days 23 (Base 50)    
Moisture  
Dew Point 70 °F    
Average Humidity 89    
Maximum Humidity 100    
Minimum Humidity 78    
Precipitation  
Precipitation 0.53 in 0.10 in 1.93 in (2012)
Month to date precipitation 0.10  
Year to date precipitation 32.58  
Snow  
Snow 0.00 in 0.00 in 0.00 in (2002)
Month to date snowfall 0.0  
Since 1 July snowfall 0.0  
Since 1 September snowfall 0.0  
Snow Depth -    
Sea Level Pressure  
Sea Level Pressure 29.87 in    
Wind  
Wind Speed 8 mph (SSW)    
Max Wind Speed 16 mph    
Max Gust Speed 33 mph    
Visibility 10 miles    
Events      
T = Trace of Precipitation, MM = Missing Value Source: NWS Daily Summary

Daily Weather History Graph

Daily Weather History Graph

Search for Another Location

Airport or City:

Trip Planner

Search our weather history database for the weather conditions in past years. The results will help you decide how hot, cold, wet, or windy it might be!

Date:

Astronomy

Sep. 01, 2013 Rise Set
Actual Time 6:24 AM CDT 7:21 PM CDT
Civil Twilight 5:58 AM CDT 7:47 PM CDT
Nautical Twilight 5:27 AM CDT 8:18 PM CDT
Astronomical Twilight 4:54 AM CDT 8:51 PM CDT
Moon 2:50 AM CDT (9/1) 4:55 PM CDT (9/1)
Length of Visible Light 13h 49m
Length of Day
12h 56m
Waning Crescent, 13% of the Moon is Illuminated
Sep 1
Waning Crescent
Sep 5
New
Sep 12
First Quarter
Sep 19
Full
Sep 26
Last Quarter

Hourly Weather History & Observations

Time (CDT) Temp. Heat Index Dew Point Humidity Pressure Visibility Wind Dir Wind Speed Gust Speed Precip Events Conditions
12:15 AM 78.8 °F - 71.6 °F 78% 29.84 in 10.0 mi SSW 6.9 mph - N/A   Clear
12:35 AM 78.8 °F - 71.6 °F 78% 29.84 in 10.0 mi SW 6.9 mph - N/A   Clear
12:55 AM 78.8 °F - 71.6 °F 78% 29.84 in 10.0 mi SW 5.8 mph - N/A   Clear
1:15 AM 77.0 °F - 71.6 °F 83% 29.83 in 10.0 mi SSW 6.9 mph - N/A   Unknown
1:35 AM 77.0 °F - 71.6 °F 83% 29.83 in 10.0 mi SW 8.1 mph - N/A   Unknown
1:55 AM 77.0 °F - 71.6 °F 83% 29.82 in 10.0 mi SW 6.9 mph - N/A   Unknown
2:15 AM 77.0 °F - 71.6 °F 83% 29.82 in 10.0 mi SSW 6.9 mph - N/A   Unknown
2:35 AM 77.0 °F - 71.6 °F 83% 29.81 in 10.0 mi SSW 9.2 mph - N/A   Unknown
2:55 AM 77.0 °F - 71.6 °F 83% 29.81 in 10.0 mi SSW 6.9 mph - N/A   Clear
3:15 AM 77.0 °F - 71.6 °F 83% 29.81 in 10.0 mi SSW 4.6 mph - N/A   Unknown
3:35 AM 77.0 °F - 71.6 °F 83% 29.81 in 10.0 mi SW 6.9 mph - N/A   Unknown
3:55 AM 77.0 °F - 71.6 °F 83% 29.81 in 10.0 mi SW 6.9 mph - N/A   Overcast
4:15 AM 78.8 °F - 71.6 °F 78% 29.82 in 10.0 mi SW 6.9 mph - N/A   Mostly Cloudy
4:35 AM 75.2 °F - 68.0 °F 78% 29.86 in 10.0 mi ENE 4.6 mph 33.4 mph N/A   Overcast
4:55 AM 73.4 °F - 66.2 °F 78% 29.87 in 10.0 mi East 8.1 mph 24.2 mph N/A   Unknown
5:15 AM 71.6 °F - 66.2 °F 83% 29.88 in 9.0 mi East 16.1 mph 21.9 mph N/A   Unknown
5:35 AM 69.8 °F - 66.2 °F 88% 29.89 in 8.0 mi East 11.5 mph 18.4 mph 0.03 in   Unknown
5:55 AM 68.0 °F - 66.2 °F 94% 29.91 in 8.0 mi East 11.5 mph 20.7 mph 0.03 in   Overcast
6:15 AM 68.0 °F - 68.0 °F 100% 29.91 in 3.0 mi East 13.8 mph - 0.10 in   Mostly Cloudy
6:35 AM 68.0 °F - 68.0 °F 100% 29.92 in 3.0 mi East 13.8 mph 18.4 mph 0.21 in   Overcast
6:55 AM 68.0 °F - 68.0 °F 100% 29.86 in 1.2 mi SSE 11.5 mph 17.3 mph 0.45 in   Overcast
7:15 AM 66.2 °F - 66.2 °F 100% 29.85 in 9.0 mi SSE 15.0 mph 25.3 mph 0.01 in   Mostly Cloudy
7:35 AM 68.0 °F - 66.2 °F 94% 29.85 in 10.0 mi South 12.7 mph 18.4 mph 0.01 in   Clear
7:55 AM 68.0 °F - 66.2 °F 94% 29.85 in 10.0 mi South 9.2 mph - 0.01 in   Clear
8:15 AM 68.0 °F - 68.0 °F 100% 29.86 in 10.0 mi SW 6.9 mph - N/A   Clear
8:35 AM 68.0 °F - 68.0 °F 100% 29.86 in 10.0 mi SSW 5.8 mph - N/A   Clear
8:55 AM 68.0 °F - 68.0 °F 100% 29.87 in 10.0 mi SW 6.9 mph - N/A   Clear
9:15 AM 68.0 °F - 68.0 °F 100% 29.89 in 9.0 mi SSW 8.1 mph - N/A   Clear
9:35 AM 68.0 °F - 68.0 °F 100% 29.87 in 10.0 mi SW 11.5 mph 17.3 mph N/A   Clear
9:55 AM 68.0 °F - 68.0 °F 100% 29.87 in 9.0 mi SSW 8.1 mph 19.6 mph N/A   Partly Cloudy
10:15 AM 69.8 °F - 68.0 °F 94% 29.88 in 9.0 mi SSW 8.1 mph - N/A   Scattered Clouds
10:35 AM 69.8 °F - 68.0 °F 94% 29.91 in 7.0 mi SW 11.5 mph 17.3 mph 0.02 in   Clear
10:55 AM 69.8 °F - 68.0 °F 94% 29.93 in 9.0 mi SSW 10.4 mph 19.6 mph 0.04 in   Clear
11:15 AM 69.8 °F - 68.0 °F 94% 29.91 in 10.0 mi SSW 4.6 mph - N/A   Clear
11:35 AM 71.6 °F - 71.6 °F 100% 29.91 in 10.0 mi SW 5.8 mph - N/A   Clear
11:55 AM 75.2 °F - 71.6 °F 89% 29.91 in 10.0 mi SW 8.1 mph - N/A   Clear
12:15 PM 77.0 °F - 71.6 °F 83% 29.91 in 10.0 mi WSW 9.2 mph - N/A   Clear
12:35 PM 75.2 °F - 71.6 °F 89% 29.89 in 10.0 mi SW 3.5 mph - N/A   Unknown
12:55 PM 77.0 °F - 71.6 °F 83% 29.88 in 10.0 mi SW 3.5 mph - N/A   Clear
1:15 PM 78.8 °F - 71.6 °F 78% 29.89 in 10.0 mi West 6.9 mph - N/A   Clear
1:35 PM 78.8 °F - 73.4 °F 83% 29.90 in 10.0 mi WSW 9.2 mph - N/A   Clear
1:55 PM 80.6 °F 85.4 °F 73.4 °F 79% 29.89 in 10.0 mi SW 11.5 mph 16.1 mph N/A   Clear
2:15 PM 77.0 °F - 71.6 °F 83% 29.88 in 10.0 mi SW 9.2 mph 16.1 mph N/A   Clear
2:35 PM 77.0 °F - 71.6 °F 83% 29.88 in 10.0 mi SW 11.5 mph - N/A   Clear
2:55 PM 77.0 °F - 71.6 °F 83% 29.86 in 10.0 mi SSW 9.2 mph 17.3 mph N/A   Clear
3:15 PM 77.0 °F - 71.6 °F 83% 29.85 in 10.0 mi SSW 8.1 mph - N/A   Clear
3:35 PM 78.8 °F - 71.6 °F 78% 29.85 in 10.0 mi WSW 6.9 mph - N/A   Clear
3:55 PM 78.8 °F - 71.6 °F 78% 29.85 in 10.0 mi SW 11.5 mph - N/A   Clear
4:15 PM 78.8 °F - 71.6 °F 78% 29.85 in 10.0 mi SW 9.2 mph - N/A   Clear
4:35 PM 78.8 °F - 71.6 °F 78% 29.85 in 10.0 mi SW 11.5 mph 16.1 mph N/A   Clear
4:55 PM 77.0 °F - 71.6 °F 83% 29.85 in 10.0 mi SW 9.2 mph - N/A   Clear
5:15 PM 77.0 °F - 71.6 °F 83% 29.84 in 10.0 mi SW 6.9 mph - N/A   Clear
5:35 PM 77.0 °F - 71.6 °F 83% 29.84 in 10.0 mi SW 5.8 mph - N/A   Clear
5:55 PM 77.0 °F - 71.6 °F 83% 29.84 in 10.0 mi South 4.6 mph - N/A   Clear
6:15 PM 77.0 °F - 71.6 °F 83% 29.84 in 10.0 mi SSW 4.6 mph - N/A   Clear
6:35 PM 75.2 °F - 71.6 °F 89% 29.84 in 10.0 mi SSW 3.5 mph - N/A   Clear
6:55 PM 75.2 °F - 71.6 °F 89% 29.84 in 10.0 mi South 3.5 mph - N/A   Clear
7:15 PM 73.4 °F - 71.6 °F 94% 29.85 in 10.0 mi South 4.6 mph - N/A   Clear
7:35 PM 73.4 °F - 71.6 °F 94% 29.85 in 10.0 mi South 4.6 mph - N/A   Clear
7:55 PM 73.4 °F - 71.6 °F 94% 29.86 in 10.0 mi SW 4.6 mph - N/A   Partly Cloudy
8:15 PM 73.4 °F - 71.6 °F 94% 29.87 in 10.0 mi SW 3.5 mph - N/A   Unknown
8:35 PM 73.4 °F - 69.8 °F 88% 29.87 in 10.0 mi Calm Calm - N/A   Clear
8:55 PM 73.4 °F - 71.6 °F 94% 29.88 in 10.0 mi SW 3.5 mph - N/A   Clear
9:15 PM 73.4 °F - 71.6 °F 94% 29.88 in 10.0 mi SSW 3.5 mph - N/A   Clear
9:35 PM 73.4 °F - 71.6 °F 94% 29.88 in 10.0 mi SW 3.5 mph - N/A   Clear
9:55 PM 71.6 °F - 71.6 °F 100% 29.88 in 10.0 mi SSW 4.6 mph - N/A   Clear
10:15 PM 71.6 °F - 71.6 °F 100% 29.88 in 9.0 mi Calm Calm - N/A   Clear
10:35 PM 71.6 °F - 71.6 °F 100% 29.89 in 10.0 mi SSE 5.8 mph - N/A   Clear
10:55 PM 71.6 °F - 71.6 °F 100% 29.90 in 10.0 mi SSE 4.6 mph - N/A   Clear
11:15 PM 71.6 °F - 71.6 °F 100% 29.90 in 10.0 mi South 5.8 mph - N/A   Clear
11:35 PM 71.6 °F - 71.6 °F 100% 29.90 in 10.0 mi South 6.9 mph - N/A   Clear
11:55 PM 71.6 °F - 71.6 °F 100% 29.89 in 10.0 mi South 6.9 mph - N/A   Clear